Location: Lake of the Woods (North-East)
(49.6672°N, 94.8656°W)
Time: 06:21:00
(UTC-06:00)

ISS - All Passes

Search period start: 26 February 2017 00:00
Search period end: 08 March 2017 00:00
Orbit: 399 x 408 km, 51.6° (Epoch: 26 February)

Date Brightness Start Highest point End Pass type
(mag) Time Alt. Az. Time Alt. Az. Time Alt. Az.
26 Feb - 07:42:00 10° S 07:44:14 17° SE 07:46:28 10° E daylight
26 Feb - 09:16:58 10° WSW 09:20:16 71° SSE 09:23:34 10° ENE daylight
26 Feb - 10:53:33 10° W 10:56:50 59° N 11:00:06 10° ENE daylight
26 Feb - 12:30:09 10° WNW 12:33:28 89° NNE 12:36:46 10° ESE daylight
26 Feb - 14:06:54 10° W 14:09:39 24° SW 14:12:22 10° SSE daylight
27 Feb - 06:51:31 10° SE 06:51:58 10° SE 06:52:26 10° SE daylight
27 Feb - 08:24:37 10° SW 08:27:48 48° SSE 08:31:00 10° ENE daylight
27 Feb - 10:00:57 10° W 10:04:14 65° N 10:07:32 10° ENE daylight
27 Feb - 11:37:36 10° WNW 11:40:55 70° NNE 11:44:12 10° E daylight
27 Feb - 13:14:10 10° W 13:17:16 38° SSW 13:20:21 10° SE daylight
28 Feb - 07:32:25 10° SSW 07:35:22 31° SSE 07:38:20 10° E daylight
28 Feb - 09:08:20 10° WSW 09:11:39 78° NNW 09:14:58 10° ENE daylight
28 Feb - 10:45:01 10° WNW 10:48:18 61° N 10:51:35 10° E daylight
28 Feb - 12:21:33 10° WNW 12:24:49 58° SSW 12:28:03 10° SE daylight
28 Feb - 13:59:06 10° WSW 14:00:44 13° SW 14:02:21 10° SSW daylight
01 Mar - 06:40:32 10° S 06:43:00 20° SE 06:45:28 10° E daylight
01 Mar - 08:15:47 10° WSW 08:19:05 80° SSE 08:22:25 10° ENE daylight
01 Mar - 09:52:25 10° W 09:55:41 58° N 09:58:57 10° E daylight
01 Mar - 11:28:58 10° WNW 11:32:18 84° SSW 11:35:35 10° ESE daylight
01 Mar - 13:05:51 10° W 13:08:25 21° SW 13:10:59 10° SSE daylight
02 Mar - 05:49:17 10° SSE 05:50:40 12° SE 05:52:04 10° ESE visible
02 Mar - 07:23:20 10° SW 07:26:34 55° SSE 07:29:48 10° ENE daylight
02 Mar - 08:59:46 10° W 09:03:03 62° N 09:06:21 10° ENE daylight
02 Mar - 10:36:24 10° WNW 10:39:43 75° NNE 10:43:00 10° E daylight
02 Mar - 12:13:00 10° W 12:16:01 33° SSW 12:19:01 10° SSE daylight
03 Mar - 06:31:02 10° SW 06:34:05 35° SSE 06:37:09 10° E daylight
03 Mar - 08:07:07 10° W 08:10:25 73° NNW 08:13:43 10° ENE daylight
03 Mar - 09:43:47 10° WNW 09:47:05 63° N 09:50:22 10° E daylight
03 Mar - 11:20:19 10° WNW 11:23:33 51° SSW 11:26:45 10° SE daylight
03 Mar - 12:58:23 10° WSW 12:59:24 11° SW 13:00:24 10° SSW daylight
04 Mar - 05:39:00 10° SSW 05:41:39 23° SE 05:44:20 10° E visible
04 Mar - 07:14:30 10° WSW 07:17:48 88° SSE 07:21:07 10° ENE daylight
04 Mar - 08:51:08 10° W 08:54:25 59° N 08:57:42 10° E daylight
04 Mar - 10:27:41 10° WNW 10:31:00 76° SSW 10:34:17 10° ESE daylight
04 Mar - 12:04:42 10° W 12:07:04 18° SW 12:09:24 10° S daylight
05 Mar - 04:47:25 10° S 04:49:17 14° SE 04:51:08 10° ESE visible
05 Mar - 06:21:58 10° WSW 06:25:14 62° SSE 06:28:31 10° ENE visible
05 Mar - 07:58:28 10° W 08:01:45 60° N 08:05:02 10° ENE daylight
05 Mar - 09:35:05 10° WNW 09:38:23 81° NNE 09:41:42 10° ESE daylight
05 Mar - 11:11:45 10° W 11:14:39 29° SW 11:17:32 10° SSE daylight
06 Mar - 05:29:35 10° SW 05:32:41 41° SSE 05:35:50 10° E visible
06 Mar - 07:05:47 10° W 07:09:04 68° N 07:12:23 10° ENE daylight
06 Mar - 08:42:26 10° WNW 08:45:44 66° N 08:49:01 10° E daylight
06 Mar - 10:18:59 10° WNW 10:22:09 44° SSW 10:25:18 10° SE daylight
07 Mar - 04:37:23 10° SSW 04:40:12 26° SE 04:43:02 10° E visible
07 Mar - 06:13:06 10° WSW 06:16:25 85° NNW 06:19:44 10° ENE visible
07 Mar - 07:49:46 10° WNW 07:53:03 59° N 07:56:20 10° E daylight
07 Mar - 09:26:18 10° WNW 09:29:35 67° SSW 09:32:51 10° ESE daylight
07 Mar - 11:03:30 10° W 11:05:35 16° SW 11:07:39 10° S daylight
